2021-03-18 00:07:34 r, 20.95m,0000000000Hz,0001287366c,0000002.794s, 009.0C,00002191
2021-03-18 00:17:37 r, 20.95m,0000000000Hz,0001307318c,0000002.837s, 008.7C,00002191
2021-03-18 00:27:35 r, 20.96m,0000000000Hz,0001318357c,0000002.861s, 008.7C,00002191
2021-03-18 00:37:34 r, 20.97m,0000000001Hz,0001329290c,0000002.885s, 008.7C,00002191
2021-03-18 00:47:35 r, 20.99m,0000000000Hz,0001336350c,0000002.900s, 009.0C,00002191
2021-03-18 00:57:36 r, 20.99m,0000000000Hz,0001336036c,0000002.899s, 009.6C,00002191
2021-03-18 01:07:34 r, 20.99m,0000000001Hz,0001335680c,0000002.899s, 009.9C,00002191
2021-03-18 01:17:36 r, 20.99m,0000000000Hz,0001336781c,0000002.901s, 010.3C,00002191
2021-03-18 01:27:35 r, 21.00m,0000000000Hz,0001346228c,0000002.922s, 010.6C,00002191
2021-03-18 01:37:34 r, 21.00m,0000000001Hz,0001347411c,0000002.924s, 010.6C,00002191
2021-03-18 01:47:34 r, 21.01m,0000000000Hz,0001367883c,0000002.968s, 010.6C,00002191
2021-03-18 01:57:37 r, 21.00m,0000000000Hz,0001356590c,0000002.944s, 010.6C,00002191
2021-03-18 02:07:35 r, 21.02m,0000000001Hz,0001368330c,0000002.969s, 010.3C,00002191
2021-03-18 02:17:34 r, 21.02m,0000000000Hz,0001378573c,0000002.992s, 010.3C,00002191
2021-03-18 02:27:35 r, 21.03m,0000000000Hz,0001384704c,0000003.005s, 009.9C,00002191
2021-03-18 02:37:36 r, 21.03m,0000000000Hz,0001386684c,0000003.009s, 009.3C,00002191
2021-03-18 02:47:34 r, 21.02m,0000000000Hz,0001387217c,0000003.010s, 008.7C,00002191
2021-03-18 02:57:36 r, 21.02m,0000000001Hz,0001379315c,0000002.993s, 008.3C,00002191
2021-03-18 03:07:35 r, 21.01m,0000000000Hz,0001373950c,0000002.982s, 008.0C,00002191
2021-03-18 03:17:34 r, 21.01m,0000000001Hz,0001374794c,0000002.983s, 007.7C,00002191
2021-03-18 03:27:35 r, 21.01m,0000000000Hz,0001370387c,0000002.974s, 007.4C,00002191
2021-03-18 03:37:37 r, 21.00m,0000000000Hz,0001363683c,0000002.959s, 007.4C,00002191
2021-03-18 03:47:34 r, 21.00m,0000000000Hz,0001365463c,0000002.963s, 007.7C,00002191
2021-03-18 03:57:37 r, 21.00m,0000000001Hz,0001364652c,0000002.961s, 007.7C,00002191
2021-03-18 04:07:35 r, 21.00m,0000000000Hz,0001362135c,0000002.956s, 007.7C,00002191
2021-03-18 04:17:34 r, 21.00m,0000000001Hz,0001356034c,0000002.943s, 007.7C,00002191
2021-03-18 04:27:37 r, 20.99m,0000000000Hz,0001347354c,0000002.924s, 007.4C,00002191
2021-03-18 04:37:35 r, 20.98m,0000000000Hz,0001335880c,0000002.899s, 007.0C,00002191
2021-03-18 04:47:34 r, 20.97m,0000000000Hz,0001327017c,0000002.880s, 006.7C,00002191
2021-03-18 04:57:35 r, 20.96m,0000000000Hz,0001315797c,0000002.855s, 006.7C,00002191
2021-03-18 05:07:37 r, 20.95m,0000000000Hz,0001306713c,0000002.836s, 006.7C,00002191
2021-03-18 05:17:34 r, 20.93m,0000000001Hz,0001285092c,0000002.789s, 006.4C,00002191
2021-03-18 05:27:36 r, 20.92m,0000000000Hz,0001269365c,0000002.755s, 006.4C,00002191
2021-03-18 05:37:35 r, 20.91m,0000000000Hz,0001252849c,0000002.719s, 006.4C,00002191
2021-03-18 05:47:34 r, 20.89m,0000000001Hz,0001233755c,0000002.677s, 006.1C,00002191
2021-03-18 05:57:37 r, 20.86m,0000000000Hz,0001197175c,0000002.598s, 006.1C,00002191
2021-03-18 06:07:35 r, 20.75m,0000000000Hz,0001087094c,0000002.359s, 005.8C,00002191
2021-03-18 06:17:34 r, 20.40m,0000000000Hz,0000788871c,0000001.712s, 005.8C,00002191
2021-03-18 06:27:37 r, 19.55m,0000000001Hz,0000361011c,0000000.783s, 005.4C,00002191
2021-03-18 06:37:35 r, 18.22m,0000000004Hz,0000106737c,0000000.232s, 005.4C,00002191
2021-03-18 06:47:34 r, 16.60m,0000000020Hz,0000023866c,0000000.052s, 005.4C,00002191
2021-03-18 06:57:35 r, 14.61m,0000000119Hz,0000003830c,0000000.008s, 005.1C,00002191
2021-03-18 07:07:36 r, 12.44m,0000000893Hz,0000000000c,0000000.000s, 005.1C,00002191
2021-03-18 07:17:34 r, 10.33m,0000006228Hz,0000000000c,0000000.000s, 005.1C,00002191
2021-03-18 07:27:36 r, 08.64m,0000029611Hz,0000000000c,0000000.000s, 005.1C,00002191
2021-03-18 07:37:35 r, 07.48m,0000086466Hz,0000000000c,0000000.000s, 005.1C,00002191
2021-03-18 07:47:34 r, 06.67m,0000180896Hz,0000000000c,0000000.000s, 005.1C,00002191
2021-03-18 07:57:35 r, 06.06m,0000320681Hz,0000000000c,0000000.000s, 005.4C,00002191
2021-03-18 08:07:37 r, 00.00m,0000482196Hz,0000000000c,0000000.000s, 006.7C,00002191
2021-03-18 08:17:34 r, 00.00m,0000598062Hz,0000000000c,0000000.000s, 008.0C,00002191
2021-03-18 08:27:37 r, 00.00m,0000597936Hz,0000000000c,0000000.000s, 009.3C,00002191
2021-03-18 08:37:35 r, 00.00m,0000597772Hz,0000000000c,0000000.000s, 010.9C,00002191
2021-03-18 08:47:34 r, 00.00m,0000597597Hz,0000000000c,0000000.000s, 012.5C,00002191
2021-03-18 08:57:37 r, 00.00m,0000597632Hz,0000000000c,0000000.000s, 014.5C,00002191
2021-03-18 09:07:35 r, 00.00m,0000597311Hz,0000000000c,0000000.000s, 015.7C,00002191
2021-03-18 09:17:34 r, 00.00m,0000597187Hz,0000000000c,0000000.000s, 017.0C,00002191
2021-03-18 09:27:35 r, 00.00m,0000597088Hz,0000000000c,0000000.000s, 017.7C,00002191
2021-03-18 09:37:36 r, 00.00m,0000597067Hz,0000000000c,0000000.000s, 019.0C,00002191
2021-03-18 09:47:34 r, 00.00m,0000597007Hz,0000000000c,0000000.000s, 020.3C,00002191
2021-03-18 09:57:36 r, 00.00m,0000596829Hz,0000000000c,0000000.000s, 021.5C,00002191
2021-03-18 10:07:35 r, 00.00m,0000596712Hz,0000000000c,0000000.000s, 022.8C,00002191
2021-03-18 10:17:35 r, 00.00m,0000596567Hz,0000000000c,0000000.000s, 023.5C,00002191
2021-03-18 10:27:35 r, 00.00m,0000596505Hz,0000000000c,0000000.000s, 024.4C,00002191
2021-03-18 10:37:37 r, 00.00m,0000596423Hz,0000000000c,0000000.000s, 024.8C,00002191
2021-03-18 10:47:34 r, 00.00m,0000596361Hz,0000000000c,0000000.000s, 025.7C,00002191
2021-03-18 10:57:37 r, 00.00m,0000596266Hz,0000000000c,0000000.000s, 026.4C,00002191
2021-03-18 11:07:35 r, 00.00m,0000596195Hz,0000000000c,0000000.000s, 026.7C,00002191
2021-03-18 11:17:34 r, 00.00m,0000596093Hz,0000000000c,0000000.000s, 027.7C,00002191
2021-03-18 11:27:37 r, 00.00m,0000595875Hz,0000000000c,0000000.000s, 029.0C,00002191
2021-03-18 11:37:35 r, 00.00m,0000595763Hz,0000000000c,0000000.000s, 029.6C,00002191
2021-03-18 11:47:34 r, 00.00m,0000595843Hz,0000000000c,0000000.000s, 029.9C,00002191
2021-03-18 11:57:35 r, 00.00m,0000595687Hz,0000000000c,0000000.000s, 030.9C,00002191
2021-03-18 12:07:37 r, 00.00m,0000595716Hz,0000000000c,0000000.000s, 030.6C,00002191
2021-03-18 12:17:34 r, 00.00m,0000595655Hz,0000000000c,0000000.000s, 030.6C,00002191
2021-03-18 12:27:36 r, 00.00m,0000595653Hz,0000000000c,0000000.000s, 030.9C,00002191
2021-03-18 12:37:35 r, 00.00m,0000595692Hz,0000000000c,0000000.000s, 030.9C,00002191
2021-03-18 12:47:34 r, 00.00m,0000595617Hz,0000000000c,0000000.000s, 030.6C,00002191
2021-03-18 12:57:37 r, 00.00m,0000595504Hz,0000000000c,0000000.000s, 031.5C,00002191
2021-03-18 13:07:35 r, 00.00m,0000595305Hz,0000000000c,0000000.000s, 033.1C,00002191
2021-03-18 13:17:34 r, 00.00m,0000595227Hz,0000000000c,0000000.000s, 034.1C,00002191
2021-03-18 13:27:37 r, 00.00m,0000595187Hz,0000000000c,0000000.000s, 035.1C,00002191
2021-03-18 13:37:35 r, 00.00m,0000595003Hz,0000000000c,0000000.000s, 035.7C,00002191
2021-03-18 13:47:34 r, 00.00m,0000594832Hz,0000000000c,0000000.000s, 036.4C,00002191
2021-03-18 13:57:35 r, 00.00m,0000594931Hz,0000000000c,0000000.000s, 036.7C,00002191
2021-03-18 14:07:36 r, 00.00m,0000594905Hz,0000000000c,0000000.000s, 036.4C,00002191
2021-03-18 14:17:34 r, 00.00m,0000594967Hz,0000000000c,0000000.000s, 036.4C,00002191
2021-03-18 14:27:36 r, 00.00m,0000594900Hz,0000000000c,0000000.000s, 036.4C,00002191
2021-03-18 14:37:35 r, 00.00m,0000594849Hz,0000000000c,0000000.000s, 036.4C,00002191
2021-03-18 14:47:34 r, 00.00m,0000594953Hz,0000000000c,0000000.000s, 036.0C,00002191
2021-03-18 14:57:35 r, 00.00m,0000595048Hz,0000000000c,0000000.000s, 035.4C,00002191
2021-03-18 15:07:37 r, 00.00m,0000595093Hz,0000000000c,0000000.000s, 035.4C,00002191
2021-03-18 15:17:34 r, 00.00m,0000595185Hz,0000000000c,0000000.000s, 035.1C,00002191
2021-03-18 15:27:37 r, 00.00m,0000595025Hz,0000000000c,0000000.000s, 035.4C,00002191
2021-03-18 15:37:35 r, 00.00m,0000595044Hz,0000000000c,0000000.000s, 035.4C,00002191
2021-03-18 15:47:35 r, 00.00m,0000595181Hz,0000000000c,0000000.000s, 035.1C,00002191
2021-03-18 15:57:35 r, 00.00m,0000595202Hz,0000000000c,0000000.000s, 035.1C,00002191
2021-03-18 16:07:36 r, 00.00m,0000595138Hz,0000000000c,0000000.000s, 034.4C,00002191
2021-03-18 16:17:35 r, 00.00m,0000595215Hz,0000000000c,0000000.000s, 034.1C,00002191
2021-03-18 16:27:36 r, 00.00m,0000595315Hz,0000000000c,0000000.000s, 034.1C,00002191
2021-03-18 16:37:35 r, 00.00m,0000595437Hz,0000000000c,0000000.000s, 033.5C,00002191
2021-03-18 16:47:35 r, 00.00m,0000595460Hz,0000000000c,0000000.000s, 032.5C,00002191
2021-03-18 16:57:35 r, 00.00m,0000595583Hz,0000000000c,0000000.000s, 032.2C,00002191
2021-03-18 17:07:37 r, 00.00m,0000595636Hz,0000000000c,0000000.000s, 031.5C,00002191
2021-03-18 17:17:34 r, 00.00m,0000595642Hz,0000000000c,0000000.000s, 031.2C,00002191
2021-03-18 17:27:37 r, 00.00m,0000595849Hz,0000000000c,0000000.000s, 030.2C,00002191
2021-03-18 17:37:35 r, 00.00m,0000595816Hz,0000000000c,0000000.000s, 029.9C,00002191
2021-03-18 17:47:35 r, 00.00m,0000595842Hz,0000000000c,0000000.000s, 029.3C,00002191
2021-03-18 17:57:37 r, 00.00m,0000595906Hz,0000000000c,0000000.000s, 028.6C,00002191
2021-03-18 18:07:35 r, 00.00m,0000596094Hz,0000000000c,0000000.000s, 028.3C,00002191
2021-03-18 18:17:35 r, 00.00m,0000596143Hz,0000000000c,0000000.000s, 027.7C,00002191
2021-03-18 18:27:35 r, 00.00m,0000596219Hz,0000000000c,0000000.000s, 027.0C,00002191
2021-03-18 18:37:36 r, 00.00m,0000590201Hz,0000000000c,0000000.000s, 026.4C,00002191
2021-03-18 18:47:35 r, 00.00m,0000499406Hz,0000000000c,0000000.000s, 025.7C,00002191
2021-03-18 18:57:35 r, 05.82m,0000398724Hz,0000000000c,0000000.000s, 025.1C,00002191
2021-03-18 19:07:37 r, 06.06m,0000318425Hz,0000000000c,0000000.000s, 023.8C,00002191
2021-03-18 19:17:35 r, 06.41m,0000230396Hz,0000000000c,0000000.000s, 022.2C,00002191
2021-03-18 19:27:35 r, 06.95m,0000141191Hz,0000000000c,0000000.000s, 021.2C,00002191
2021-03-18 19:37:35 r, 07.77m,0000066321Hz,0000000000c,0000000.000s, 020.3C,00002191
2021-03-18 19:47:36 r, 09.00m,0000021230Hz,0000000000c,0000000.000s, 019.3C,00002191
2021-03-18 19:57:35 r, 10.78m,0000004144Hz,0000000000c,0000000.000s, 018.6C,00002191
2021-03-18 20:07:36 r, 12.89m,0000000594Hz,0000000000c,0000000.000s, 018.0C,00002191
2021-03-18 20:17:35 r, 15.09m,0000000078Hz,0000005930c,0000000.013s, 017.7C,00002191
2021-03-18 20:27:35 r, 17.03m,0000000012Hz,0000035753c,0000000.078s, 017.4C,00002191
2021-03-18 20:37:35 r, 18.51m,0000000003Hz,0000139724c,0000000.303s, 017.0C,00002191
2021-03-18 20:47:37 r, 19.59m,0000000001Hz,0000372749c,0000000.809s, 016.7C,00002191
2021-03-18 20:57:35 r, 20.15m,0000000001Hz,0000629126c,0000001.365s, 016.7C,00002191
2021-03-18 21:07:37 r, 20.38m,0000000001Hz,0000769119c,0000001.669s, 016.4C,00002191
2021-03-18 21:17:35 r, 20.45m,0000000001Hz,0000824750c,0000001.790s, 016.4C,00002191
2021-03-18 21:27:35 r, 20.50m,0000000001Hz,0000857363c,0000001.861s, 016.4C,00002191
2021-03-18 21:37:37 r, 20.53m,0000000001Hz,0000881206c,0000001.912s, 016.4C,00002191
2021-03-18 21:47:35 r, 20.55m,0000000000Hz,0000898795c,0000001.951s, 016.4C,00002191
2021-03-18 21:57:35 r, 20.57m,0000000000Hz,0000913789c,0000001.983s, 016.1C,00002191
2021-03-18 22:07:35 r, 20.59m,0000000000Hz,0000931448c,0000002.021s, 016.1C,00002191
2021-03-18 22:17:36 r, 20.62m,0000000000Hz,0000950320c,0000002.062s, 016.1C,00002191
2021-03-18 22:27:35 r, 20.63m,0000000000Hz,0000965055c,0000002.094s, 016.1C,00002191
2021-03-18 22:37:36 r, 20.65m,0000000001Hz,0000984280c,0000002.136s, 016.1C,00002191
2021-03-18 22:47:35 r, 20.67m,0000000000Hz,0001001345c,0000002.173s, 015.7C,00002191
2021-03-18 22:57:35 r, 20.69m,0000000001Hz,0001018981c,0000002.211s, 015.4C,00002191
2021-03-18 23:07:35 r, 20.71m,0000000001Hz,0001032795c,0000002.241s, 015.4C,00002191
2021-03-18 23:17:37 r, 20.72m,0000000000Hz,0001046775c,0000002.272s, 015.4C,00002191
2021-03-18 23:27:35 r, 20.72m,0000000000Hz,0001051669c,0000002.282s, 015.4C,00002191
2021-03-18 23:37:37 r, 20.75m,0000000000Hz,0001073245c,0000002.329s, 015.4C,00002191
2021-03-18 23:47:35 r, 20.76m,0000000000Hz,0001090620c,0000002.367s, 015.1C,00002191
2021-03-18 23:57:35 r, 20.78m,0000000000Hz,0001112896c,0000002.415s, 015.1C,00002191
